GFSGL_sfc_temp_000.txt.gz
Temp
41 43 40 39 39 39 36 35 33 33 32 32 32 30 29 28 28 27 26 26 25 24 25 24 24 25 23 23 24 23 22 22 16 24 27 27 25 26 27 28 28 28 28
43 42 40 39 38 37 36 35 33 33 32 32 31 30 29 28 27 26 24 24 22 22 24 23 22 24 21 22 21 20 21 21 18 15 21 22 22 24 24 24 27 29 28
41 40 38 37 37 38 36 33 33 32 31 30 30 29 28 27 25 26 25 24 23 24 24 22 22 21 19 19 19 19 19 20 19 16 16 21 21 23 23 24 25 26 29
39 38 38 37 37 37 36 33 33 32 30 30 29 29 27 26 25 26 25 24 23 24 24 23 22 21 20 18 17 17 17 15 16 16 16 17 20 23 24 22 23 27 27
40 38 38 38 37 36 32 31 31 30 30 29 27 25 25 25 26 25 25 20 21 21 22 22 22 22 23 22 18 16 16 14 15 15 17 18 20 22 23 25 23 23 24
38 37 38 35 33 31 30 29 28 28 26 25 24 23 21 26 29 30 26 21 21 21 20 21 22 21 23 25 26 27 26 19 17 17 20 20 21 22 24 23 23 21 18
37 36 33 32 30 28 28 27 26 25 24 23 22 21 20 23 31 31 28 22 20 21 21 22 22 23 22 23 25 26 27 28 28 25 21 21 21 24 24 22 22 21 20
35 33 31 29 28 26 26 25 25 25 23 22 20 21 21 21 32 31 28 23 21 21 21 22 21 22 23 23 23 20 22 23 24 25 24 24 24 25 25 24 23 22 24
31 31 30 29 27 25 24 25 25 23 22 22 20 19 19 19 32 32 29 21 21 20 22 22 22 22 24 26 23 20 21 23 28 29 29 29 30 30 28 23 18 16 15
29 29 28 28 26 24 24 23 23 23 22 21 18 18 19 17 30 30 28 20 17 18 20 23 24 23 26 27 22 21 19 20 20 20 22 20 22 20 24 21 18 13 14
24 23 21 23 23 22 22 22 20 20 19 18 16 16 17 17 23 30 30 20 17 16 17 17 21 25 26 27 29 21 19 22 21 14 13 15 16 17 18 20 21 18 15
21 20 20 20 21 21 18 18 17 18 16 15 13 12 15 16 19 28 29 25 24 15 16 20 20 24 26 27 25 23 24 23 9 9 9 10 12 14 17 20 21 21 21
21 21 20 17 18 19 17 15 15 15 16 13 14 14 14 15 17 26 29 29 27 19 19 21 24 22 22 20 19 21 18 11 9 7 8 11 15 17 18 18 20 20 21
21 19 18 17 16 16 16 16 15 15 16 15 15 14 14 14 16 21 23 25 26 22 21 12 16 16 16 16 13 14 13 12 10 9 10 13 15 14 13 16 15 16 15
20 18 17 17 14 15 16 16 17 18 19 16 17 17 15 14 16 21 19 14 14 15 3 -0 1 7 7 9 8 9 10 10 9 10 10 10 11 12 12 15 16 15 12
19 17 16 16 14 15 14 13 22 21 23 26 25 21 20 23 24 24 24 24 24 20 -2 -6 -1 3 4 5 4 5 7 8 9 9 9 9 9 9 10 12 15 14 11
21 19 16 15 13 13 13 12 11 20 24 27 27 24 22 23 25 26 26 26 23 13 -5 -6 -5 -0 0 3 3 3 3 6 8 7 7 7 8 8 9 11 13 13 10
21 20 16 15 13 13 13 13 15 14 16 18 25 23 25 26 26 27 25 21 8 2 -8 -10 -9 -8 -3 -1 -0 0 1 2 3 4 5 5 6 8 8 11 11 10 9
20 18 15 14 13 13 14 14 15 16 17 17 18 22 24 26 26 25 19 5 1 -3 -9 -9 -10 -7 -5 -5 -5 -6 -5 -3 -0 1 2 4 6 7 9 11 11 10 10
21 19 15 13 12 12 13 14 15 16 16 16 16 17 19 20 12 5 1 -1 -2 -6 -5 -8 -9 -11 -11 -12 -13 -12 -8 -5 -2 1 2 5 7 7 10 10 10 9 8
19 16 13 13 12 12 13 14 15 14 14 15 13 13 17 11 4 1 -2 -2 -4 -5 -6 -9 -11 -13 -14 -16 -16 -16 -11 -5 -3 0 3 5 6 9 10 10 10 9 9
15 12 12 11 11 11 12 13 12 11 11 8 9 15 17 6 3 -1 -1 -3 -6 -7 -9 -12 -13 -14 -13 -16 -18 -14 -9 -7 -4 -0 2 4 7 10 9 9 9 9 8
12 11 10 10 11 11 11 10 10 10 8 8 10 12 4 2 0 -1 -3 -7 -7 -7 -9 -13 -13 -13 -13 -16 -15 -10 -10 -7 -4 -0 1 4 9 9 8 7 8 7 8
9 9 8 9 9 9 8 7 7 7 7 7 6 3 1 -1 -2 -4 -6 -8 -8 -11 -14 -15 -14 -14 -13 -15 -15 -12 -9 -6 -3 1 3 8 9 9 8 7 8 8 7
7 6 6 6 6 5 5 4 4 5 4 3 0 -0 -2 -4 -5 -6 -8 -8 -10 -12 -12 -13 -14 -15 -15 -15 -14 -13 -9 -4 -2 4 10 10 9 7 7 7 7 7 7
4 4 4 4 3 3 2 1 1 1 -0 -1 -2 -3 -3 -4 -6 -8 -9 -10 -11 -11 -13 -15 -17 -16 -15 -13 -11 -7 -2 5 8 14 10 10 9 7 7 6 6 6 7

GFSGL_sfc_temp_003.txt.gz
Temp
40 42 42 41 42 41 37 37 37 35 33 33 33 32 31 30 30 29 28 28 27 26 26 26 25 25 23 22 24 23 22 22 17 22 27 26 26 26 27 27 28 28 29
43 43 41 41 39 39 38 36 36 34 33 33 32 32 32 31 30 29 27 27 25 25 25 24 23 24 21 21 21 20 20 21 19 16 22 23 22 24 24 24 27 30 29
41 39 38 38 37 38 39 35 35 34 33 32 32 32 31 31 29 29 28 27 26 26 25 24 22 21 18 18 19 18 19 21 19 17 17 21 22 24 24 26 26 28 30
38 38 39 38 38 40 39 35 34 34 32 31 32 32 31 30 29 29 28 26 25 25 25 24 22 21 19 17 18 17 18 16 16 16 17 18 21 24 25 23 23 26 27
39 40 40 41 41 40 38 34 33 32 33 32 30 30 30 30 29 28 27 23 23 22 22 23 22 22 24 21 18 16 15 13 13 13 16 18 21 23 22 24 23 23 25
41 40 42 39 36 36 36 33 31 30 30 30 29 28 27 30 33 32 28 23 22 22 21 21 22 21 24 26 25 24 19 12 11 12 18 20 21 23 24 23 22 20 18
38 40 37 32 33 33 32 31 30 29 29 29 28 27 26 28 33 33 30 24 22 22 21 21 21 23 21 23 27 28 28 29 29 25 20 21 21 23 23 22 22 22 21
36 36 30 32 33 30 29 28 28 29 27 27 26 26 26 26 34 34 31 24 22 22 22 22 22 22 22 22 22 20 21 22 23 24 23 23 24 25 26 26 23 20 20
32 31 29 29 30 26 27 27 28 27 26 26 25 24 24 24 34 34 30 22 21 21 23 23 22 22 24 26 21 16 19 22 27 30 31 31 31 30 29 22 14 12 12
30 29 26 24 23 26 26 25 26 26 25 25 22 23 23 22 34 34 29 22 18 19 21 23 23 23 25 27 21 15 12 20 22 16 21 22 23 22 24 21 15 10 11
26 22 19 20 21 25 25 24 22 22 23 21 20 20 20 22 30 34 31 21 19 18 18 19 22 27 26 28 28 21 20 21 16 10 12 14 16 17 17 18 19 16 13
28 22 22 18 19 22 23 21 21 21 19 18 17 17 18 21 28 34 33 26 25 17 18 20 21 27 27 27 27 26 26 23 3 1 4 8 11 13 17 19 20 20 20
31 28 24 22 20 21 20 18 18 19 18 16 16 17 16 18 23 32 33 29 27 19 20 22 24 26 27 25 22 22 18 9 3 0 5 9 14 16 18 17 18 18 18
26 27 24 21 19 19 20 18 18 16 17 17 16 16 16 16 18 25 27 29 26 22 24 24 23 19 19 18 15 16 14 12 10 8 9 12 14 13 12 15 13 14 12
22 25 23 20 19 18 19 18 18 19 20 18 18 18 15 14 17 24 25 25 23 21 12 12 9 11 10 11 10 9 10 10 9 9 8 8 9 10 11 13 12 11 9
16 20 23 20 18 18 17 16 24 24 24 26 25 22 20 25 24 26 28 28 25 22 11 7 8 9 9 9 7 7 7 8 9 8 7 7 7 7 8 9 10 10 9
12 15 21 19 18 16 15 16 14 20 26 26 27 26 25 25 26 27 28 28 26 21 9 8 8 7 6 6 6 5 4 6 7 6 6 5 6 5 5 6 8 9 9
11 14 17 21 18 16 16 15 15 15 17 18 25 26 26 25 27 28 28 28 21 12 8 6 4 3 3 3 3 3 2 2 2 3 2 0 1 2 3 4 7 6 8
11 13 17 21 18 17 16 15 14 15 17 17 20 24 24 26 27 28 28 18 9 5 4 2 2 1 0 -1 -2 -4 -7 -8 -3 -4 -7 -4 0 1 3 5 6 8 9
9 12 15 18 16 14 14 13 14 15 16 18 19 20 20 22 22 22 14 10 6 4 2 1 -2 -3 -4 -6 -11 -13 -17 -12 -8 -8 -8 -3 -0 2 4 4 7 7 7
9 12 15 18 14 13 13 13 14 15 16 17 18 20 24 22 19 8 7 7 5 3 0 -1 -3 -6 -9 -13 -15 -17 -15 -10 -7 -11 -7 -3 -0 0 4 5 8 8 7
9 13 15 13 13 12 13 14 15 16 17 16 17 20 26 12 10 7 5 3 2 1 -1 -2 -6 -9 -10 -11 -11 -13 -13 -11 -10 -12 -7 -2 -1 1 3 7 8 7 6
13 13 12 12 12 12 13 14 15 15 15 14 16 17 9 7 5 4 2 -1 -2 -4 -5 -8 -9 -10 -11 -12 -12 -10 -11 -10 -10 -13 -7 -4 -2 1 6 7 7 5 5
9 9 10 10 11 11 10 11 12 10 11 13 11 7 5 4 2 0 -1 -3 -4 -6 -7 -8 -9 -10 -12 -14 -14 -14 -13 -11 -12 -10 -8 -4 -1 4 7 7 5 4 5
7 7 8 8 8 8 8 8 7 9 9 5 3 2 1 0 -1 -3 -4 -4 -5 -8 -8 -8 -8 -9 -11 -11 -12 -13 -12 -7 -8 -6 -4 1 6 4 7 5 4 4 4
4 4 4 5 5 5 6 6 5 4 3 2 1 0 -0 -2 -3 -4 -5 -6 -6 -6 -7 -8 -8 -9 -10 -10 -11 -8 -6 1 2 7 11 12 2 6 6 3 2 3 3

GFSGL_sfc_temp_006.txt.gz
Temp
37 39 37 36 38 37 36 37 37 35 34 33 35 34 33 32 32 31 31 29 29 28 28 28 27 27 25 24 25 24 23 23 19 22 26 26 26 25 27 27 27 28 29
38 38 36 37 35 35 36 36 36 34 34 34 34 33 33 33 32 32 30 29 28 27 27 26 25 26 23 23 22 22 22 22 20 17 21 22 22 23 24 24 27 30 29
41 36 36 36 34 36 38 37 36 35 34 34 34 33 33 33 32 33 32 30 30 29 28 26 25 23 21 21 20 20 20 23 20 18 17 21 21 23 23 24 25 27 30
38 37 36 35 36 39 39 37 35 35 34 33 33 34 34 33 33 33 32 30 29 29 28 27 25 23 22 19 19 19 18 17 18 17 17 18 20 23 24 23 23 26 26
37 38 38 37 35 36 36 36 33 33 35 34 33 33 33 33 33 32 32 29 28 27 26 26 25 24 27 23 20 17 17 15 14 14 16 18 20 22 22 24 22 23 24
35 35 37 36 34 32 35 34 31 32 32 31 31 31 30 33 36 36 34 29 28 27 24 24 24 24 28 28 28 25 20 12 6 9 18 19 21 22 23 22 22 21 19
34 34 34 34 33 34 31 29 30 30 31 30 30 30 30 31 37 37 36 30 28 27 26 25 23 24 23 25 29 27 26 26 22 19 19 21 21 23 23 22 23 22 21
32 32 32 31 31 30 27 28 27 28 29 29 30 30 30 30 37 38 36 29 28 27 26 25 24 22 22 23 24 24 24 24 25 25 23 23 23 25 24 25 22 18 19
32 32 31 30 29 28 25 25 27 27 28 29 30 29 29 29 36 37 35 26 27 25 25 25 25 23 25 27 21 18 20 21 27 29 30 30 31 30 29 18 9 6 10
30 31 30 27 26 26 24 22 23 27 27 28 27 28 27 27 35 37 33 24 22 22 24 25 26 25 28 29 20 17 14 18 21 18 21 23 23 22 24 21 12 2 8
26 26 29 29 26 25 26 20 21 23 22 21 22 24 25 25 29 36 35 24 23 21 20 20 23 29 29 30 26 20 18 21 20 14 14 14 16 17 18 19 20 16 11
24 24 25 27 28 25 23 21 20 21 21 18 18 17 19 22 28 36 35 28 27 22 21 22 23 29 29 30 29 26 28 18 8 5 4 8 12 13 16 18 20 20 20
20 21 21 23 26 25 23 22 20 20 20 16 17 16 17 20 23 32 34 30 29 23 23 24 26 30 29 30 31 30 21 12 8 1 4 10 14 16 18 17 18 17 17
15 15 16 18 21 25 22 23 20 20 19 19 17 18 18 18 20 26 31 29 28 22 24 23 25 27 29 21 23 24 16 13 12 9 9 12 14 13 12 14 11 12 10
12 12 12 15 17 22 22 22 21 22 23 20 20 20 17 16 19 25 29 27 24 21 21 21 21 18 16 14 13 13 13 13 11 10 9 9 10 10 10 12 11 9 6
7 8 10 12 14 18 20 20 26 27 26 28 27 23 21 24 24 26 30 31 28 27 19 18 15 14 13 12 10 10 11 11 12 11 9 8 8 7 7 8 9 6 5
4 5 7 9 11 14 19 17 17 21 28 28 28 28 27 24 26 27 29 31 29 26 16 15 13 12 11 11 10 10 9 10 10 8 8 7 6 5 5 4 5 6 5
3 4 5 7 9 12 15 17 17 17 15 20 27 27 29 27 27 27 29 30 26 22 15 13 11 11 10 9 8 8 7 6 6 6 5 3 -0 -2 -0 0 3 3 4
2 3 5 7 10 12 14 17 16 16 16 18 20 25 27 28 27 28 29 25 22 12 12 12 11 9 8 7 6 5 3 1 1 -1 -3 -5 -4 -5 -3 -0 2 4 5
2 4 5 6 7 9 12 15 14 14 15 17 17 19 23 23 21 22 24 24 15 14 12 9 7 6 5 3 1 -0 -3 -4 -5 -6 -8 -8 -5 -5 -1 -1 1 2 3
3 4 4 6 8 10 13 13 14 13 14 16 17 20 24 21 21 22 23 15 12 9 9 6 4 3 1 -1 -3 -5 -6 -3 -7 -9 -9 -10 -7 -5 -2 1 1 3 5
5 4 4 5 8 11 13 13 13 13 14 15 17 20 26 20 18 12 12 11 9 7 6 4 1 -0 -2 -3 -4 -6 -6 -8 -11 -11 -11 -10 -7 -4 -3 -1 2 5 6
8 9 10 11 12 13 12 12 13 13 14 15 17 18 17 11 10 8 3 3 2 0 1 1 -1 -4 -5 -5 -6 -4 -5 -7 -9 -13 -14 -11 -8 -7 -4 -1 2 5 5
7 7 8 9 9 9 9 10 11 12 12 14 9 7 6 6 2 1 1 -0 -1 -3 -3 -3 -3 -4 -6 -9 -10 -11 -12 -13 -14 -13 -14 -11 -7 -6 -3 1 5 5 4
4 5 5 7 8 8 7 8 9 7 6 5 4 3 3 2 0 -1 -1 -2 -3 -4 -5 -5 -4 -5 -6 -8 -9 -11 -12 -4 -6 -9 -12 -7 -7 -5 0 2 5 4 1
2 3 3 4 5 6 6 4 4 3 2 2 2 2 1 0 -1 -1 -2 -3 -3 -3 -4 -5 -5 -6 -7 -7 -8 -7 -6 -2 -5 -5 -6 -3 2 7 -0 2 3 1 -0

GFSGL_sfc_temp_009.txt.gz
Temp
43 42 39 39 40 40 38 38 39 38 37 37 37 37 37 37 37 37 38 36 35 35 35 35 34 34 34 34 34 34 34 34 33 30 33 33 32 32 33 32 33 34 35
41 41 41 39 38 38 39 38 38 37 37 37 37 37 37 37 36 36 35 34 35 33 34 33 33 31 31 32 32 31 31 31 31 29 28 30 30 30 31 30 31 33 34
39 38 40 40 39 38 38 38 36 38 36 37 36 36 36 36 36 36 37 36 36 36 34 33 32 30 28 29 30 29 29 28 28 27 27 27 28 29 29 30 30 32 33
37 37 36 37 38 38 39 38 36 37 37 36 36 36 36 36 36 36 37 36 35 35 35 34 32 31 29 27 27 26 26 26 25 25 24 24 25 28 28 27 28 31 30
36 35 35 36 36 36 36 36 36 35 36 36 36 36 36 36 36 35 36 35 34 34 34 33 32 32 32 30 27 25 24 23 23 22 22 23 24 24 25 28 26 28 29
34 34 35 34 33 34 34 34 34 33 33 34 33 34 34 35 38 38 37 35 33 34 31 31 31 29 32 32 32 30 26 21 19 21 23 22 24 26 27 26 25 24 25
31 33 32 32 31 31 32 32 32 32 33 32 33 33 33 34 39 39 38 35 33 34 32 30 29 29 29 30 32 31 30 30 27 24 23 25 25 27 27 25 25 25 25
29 29 30 29 29 29 29 30 30 31 30 30 32 32 32 34 37 39 37 35 33 33 32 31 30 28 29 28 29 27 27 27 27 27 27 28 29 29 28 27 25 22 23
27 27 27 26 25 28 27 28 29 28 29 29 31 30 30 32 36 38 37 34 31 31 32 31 30 28 30 31 27 24 23 24 30 30 30 30 30 30 30 24 19 17 16
26 26 25 24 24 26 27 27 28 27 28 29 28 29 29 29 35 37 38 34 29 29 29 29 30 29 31 31 25 24 22 23 24 26 28 30 31 27 27 25 20 15 15
23 23 22 22 22 23 24 26 26 26 26 26 25 26 26 28 29 35 38 34 28 27 25 26 27 31 31 31 27 23 24 24 25 23 24 22 22 22 22 23 23 20 15
19 19 19 18 19 20 20 22 25 24 23 24 24 24 24 26 28 32 36 38 31 26 24 27 25 32 30 31 28 25 27 24 22 19 18 17 18 18 20 21 22 22 23
16 15 15 16 16 16 16 18 21 24 21 22 22 22 23 24 24 30 31 37 31 25 25 26 27 32 30 30 30 27 26 20 17 14 15 17 19 20 20 19 19 19 19
11 12 13 12 12 13 15 17 19 22 22 22 22 21 22 21 21 23 28 30 30 27 27 26 27 29 29 29 28 29 22 19 17 17 16 17 18 16 16 17 15 15 14
9 9 9 9 9 10 12 14 17 23 24 22 22 23 22 20 21 24 25 28 27 26 23 22 23 24 24 24 23 18 17 16 15 15 14 13 14 14 14 15 14 13 10
4 5 5 6 6 7 8 10 18 22 26 30 30 28 24 27 29 27 28 30 30 28 21 20 21 23 18 20 17 15 15 13 14 13 12 12 12 12 12 12 12 10 9
1 2 3 3 4 4 5 7 8 15 24 29 30 31 30 28 28 28 29 30 31 28 20 20 20 20 18 18 16 14 12 13 14 13 12 11 10 9 9 9 9 9 8
1 2 2 2 2 3 4 6 8 10 12 17 24 27 30 30 30 28 29 30 27 26 21 20 19 19 16 15 14 13 12 12 11 11 10 9 7 7 6 6 7 5 6
1 1 2 2 3 3 5 6 8 9 10 16 18 22 25 30 30 29 29 25 25 23 19 18 17 16 15 15 13 13 11 10 9 8 6 4 3 3 2 4 4 4 5
2 3 3 3 3 3 4 5 6 8 10 15 16 17 20 23 24 24 25 24 26 23 17 16 16 15 14 12 10 9 7 6 4 3 2 2 2 2 3 2 3 4 4
3 3 4 3 3 3 4 5 7 9 13 14 15 18 23 21 23 22 23 23 19 16 16 13 12 10 9 7 5 4 4 3 2 1 1 0 -1 -1 1 3 3 2 2
5 5 5 6 6 4 5 7 9 11 14 13 15 16 23 22 22 21 17 13 13 13 11 8 6 5 5 5 4 3 2 1 0 1 0 -1 -1 -1 -2 0 0 2 3
4 5 6 8 10 11 8 10 13 13 13 14 15 17 17 13 9 7 6 6 6 5 5 4 3 1 2 2 4 4 2 1 1 -0 -1 -2 -3 -3 -3 -2 -1 0 2
3 4 5 6 9 9 10 11 12 13 11 8 7 7 6 5 3 2 2 2 2 3 4 3 2 1 -1 -1 -1 -0 1 -0 -2 -2 -2 -3 -3 -5 -4 -3 -1 1 4
2 2 3 4 5 6 5 5 5 4 5 4 4 3 3 3 2 1 1 1 1 1 0 0 1 -1 -2 -3 -4 -4 -5 0 -6 -6 -7 -7 -6 -5 -4 -3 1 4 5
-1 -0 0 1 2 2 2 2 2 2 2 2 2 2 2 1 1 1 1 0 -1 -2 -2 -1 -2 -2 -2 -2 -3 -4 -4 -1 -3 -3 -6 -6 -4 -3 -2 1 2 4 4

GFSGL_sfc_temp_012.txt.gz
Temp
45 46 46 46 46 46 45 47 47 47 46 45 46 45 46 46 46 46 46 46 43 44 44 44 44 45 44 45 46 46 45 47 45 40 44 42 40 40 38 38 38 39 41
43 43 43 44 44 44 45 45 45 45 46 44 45 44 43 43 44 43 43 43 41 42 42 42 43 40 42 43 43 42 43 44 44 35 37 37 37 38 39 37 36 37 39
43 41 41 39 40 40 40 42 43 43 42 44 43 43 42 43 41 42 43 43 41 42 42 40 41 38 38 39 40 40 41 38 40 40 34 37 36 36 34 35 36 37 38
40 40 39 39 38 38 38 38 39 40 41 40 42 42 41 41 41 41 40 41 41 41 43 41 40 38 38 37 36 37 37 36 36 36 35 32 34 33 34 34 33 36 37
39 39 39 39 39 37 36 35 35 35 37 39 38 39 40 40 39 40 39 38 39 40 40 40 40 39 39 39 36 35 34 34 33 32 32 32 32 29 29 33 33 34 35
35 34 37 35 34 33 34 33 34 34 34 34 34 35 36 37 39 40 40 38 37 38 39 39 39 36 37 39 39 38 35 32 30 31 32 30 31 32 33 31 31 29 31
32 32 32 32 31 31 32 33 32 32 34 33 33 34 34 36 39 40 39 38 37 38 38 38 37 37 35 36 37 38 36 37 37 34 32 32 32 32 33 30 30 29 30
31 30 31 31 29 29 29 31 32 33 32 32 33 34 34 35 38 38 38 37 37 38 38 38 37 36 34 35 34 32 32 33 34 34 36 35 36 35 34 33 30 30 31
31 31 31 30 26 26 24 27 29 29 30 31 31 32 32 33 36 37 37 35 35 35 37 38 38 37 35 36 33 30 29 30 34 34 34 35 35 35 33 30 25 23 22
30 30 30 29 25 23 25 24 26 27 28 31 30 32 32 32 34 36 36 35 33 34 35 36 35 36 36 35 32 30 26 27 28 27 28 31 32 31 31 30 27 22 23
28 28 27 26 24 23 23 23 23 23 24 24 27 30 31 31 32 34 35 34 34 34 34 33 34 36 36 35 35 31 30 29 28 25 27 27 27 29 30 30 29 25 22
24 22 22 21 21 21 19 19 19 19 19 21 24 27 30 32 31 32 34 35 35 33 33 33 33 34 35 35 35 33 33 29 26 26 26 25 24 24 26 26 26 27 27
17 15 16 17 17 17 15 15 16 17 17 19 22 26 28 31 32 31 33 33 33 33 34 33 33 33 34 34 36 31 29 25 25 23 23 23 24 24 25 24 24 25 24
10 10 11 11 12 12 14 14 13 14 15 17 19 23 26 28 29 30 29 28 30 31 32 31 31 31 33 30 30 30 27 24 24 23 22 23 22 21 21 22 19 18 17
6 7 7 8 8 8 10 11 12 14 15 14 16 20 22 23 27 30 28 27 28 30 28 27 25 25 25 26 28 25 25 22 22 22 20 18 19 19 19 19 19 17 14
4 5 6 6 6 7 7 7 13 15 17 19 21 21 22 26 29 31 31 30 30 31 25 24 23 24 24 25 26 24 22 21 21 20 18 17 17 17 15 16 16 14 14
2 4 5 5 5 5 5 5 3 9 14 16 19 21 23 25 28 31 31 31 31 30 24 24 24 24 25 26 23 20 20 21 19 18 16 15 15 15 14 13 13 13 12
2 3 3 4 4 5 4 4 5 4 4 8 15 19 21 26 28 30 31 30 26 27 26 24 24 25 25 23 21 19 18 16 17 15 15 14 13 12 11 11 12 11 10
3 4 5 5 5 5 5 5 5 5 5 6 10 14 18 24 26 28 30 27 25 26 25 24 24 25 23 23 20 18 16 16 15 13 12 11 11 11 10 11 11 10 9
5 6 6 6 6 6 6 5 6 6 6 7 9 12 17 21 20 22 28 27 26 26 26 24 23 21 20 19 18 16 15 13 12 11 9 9 9 10 9 8 9 9 8
5 6 6 7 7 7 7 7 7 6 7 8 11 16 21 19 20 22 26 26 26 26 22 20 18 18 18 16 14 13 12 10 9 8 7 7 6 6 9 9 9 7 8
6 6 6 6 8 9 11 12 9 8 9 10 13 18 21 19 21 23 23 20 20 20 20 18 16 14 13 12 11 10 9 7 8 7 6 5 5 6 6 7 7 8 7
5 5 6 7 8 10 11 13 12 11 13 16 16 16 16 14 13 13 11 12 12 12 12 11 9 8 10 10 11 11 8 7 7 7 6 5 5 5 6 6 6 5 6
3 3 5 6 6 7 7 8 8 8 9 9 8 8 8 7 6 6 7 8 8 8 8 8 7 7 6 7 8 8 8 7 6 7 7 6 4 4 5 4 5 5 6
1 1 2 3 4 4 5 5 6 6 6 6 6 6 5 5 5 5 5 6 6 6 6 6 6 6 5 5 4 3 7 5 4 4 4 5 4 3 3 4 5 6 7
-0 0 1 2 2 2 3 3 3 4 4 4 4 4 4 3 3 3 3 3 3 3 3 4 4 3 3 3 2 2 3 3 0 1 1 2 1 2 3 3 3 5 7

GFSGL_sfc_temp_015.txt.gz
Temp
45 45 44 44 44 45 44 44 44 44 45 44 44 44 44 44 45 45 45 44 44 44 45 45 45 45 45 45 43 43 42 44 42 38 43 42 40 39 36 36 38 37 38
44 43 42 43 41 41 41 41 41 41 42 43 44 42 42 43 44 43 42 41 43 42 43 43 44 43 43 44 43 42 41 42 40 34 38 38 37 38 36 34 35 37 37
43 42 42 40 40 39 39 38 38 38 39 41 41 41 41 41 42 42 42 41 42 43 43 43 42 42 39 42 42 41 40 37 40 35 33 36 35 37 36 35 35 34 36
43 41 39 39 39 39 38 38 37 37 37 37 37 39 40 40 39 40 40 40 40 41 42 42 42 42 40 40 39 39 38 37 37 36 33 34 34 34 34 32 30 33 33
41 39 39 38 38 37 35 34 35 35 36 36 35 35 35 37 38 38 39 38 37 39 41 40 42 42 42 42 40 39 38 37 36 35 33 32 31 29 29 32 32 32 33
37 35 36 34 34 33 33 32 33 34 35 35 34 34 33 35 37 37 36 36 37 37 37 40 40 38 39 41 42 44 41 37 35 35 35 34 32 32 32 31 31 30 27
33 32 32 32 31 32 31 31 30 31 33 32 33 34 33 35 37 38 38 34 33 36 37 37 38 39 37 39 40 41 42 43 43 39 36 36 34 33 32 31 31 31 31
32 31 32 32 30 31 30 28 29 30 30 30 31 32 33 34 37 38 37 36 35 35 36 37 37 38 38 36 36 36 37 37 40 40 40 39 38 36 35 34 32 31 30
31 31 31 31 29 29 26 26 27 27 27 26 28 28 28 30 35 37 36 34 34 34 36 37 37 37 39 40 35 34 33 35 38 41 40 40 40 39 37 31 27 26 23
29 29 29 28 26 25 26 25 25 25 24 26 25 26 26 26 32 35 35 33 32 33 34 35 36 37 39 40 34 33 31 32 31 33 32 36 37 36 37 33 29 25 23
26 25 24 24 23 23 22 23 22 21 21 20 20 22 23 25 27 33 35 33 32 32 32 33 35 38 38 39 39 33 33 34 32 31 29 30 31 31 31 30 30 29 24
19 17 16 15 16 17 15 16 16 16 15 15 16 18 21 24 28 32 34 35 35 31 31 34 35 37 37 38 38 37 37 36 30 28 26 26 26 26 27 28 29 28 30
12 9 9 10 10 11 10 10 11 12 12 13 14 15 17 22 25 30 34 35 36 32 33 34 35 36 36 36 38 38 35 33 27 25 24 26 27 28 28 26 26 25 26
6 6 7 7 7 8 9 10 8 8 8 9 10 11 14 17 20 25 28 30 31 31 32 33 34 33 33 33 32 35 33 31 26 26 26 28 28 25 22 22 19 20 18
5 5 6 7 6 7 8 8 8 9 9 7 8 9 10 11 15 22 24 25 27 28 28 29 29 30 27 27 29 30 31 28 25 27 27 24 21 21 19 20 19 17 15
3 4 5 5 5 6 6 7 13 14 16 17 18 16 14 18 21 23 24 26 28 30 27 25 27 27 25 25 26 26 28 27 25 25 24 21 19 19 17 17 17 16 15
1 2 3 3 4 4 4 4 3 8 14 15 16 17 18 18 20 22 23 25 27 29 25 25 25 25 24 26 26 26 26 23 24 22 20 19 18 18 16 15 15 15 14
2 2 3 4 4 5 5 5 5 4 3 5 12 13 15 17 19 21 23 25 22 25 26 25 25 25 25 25 26 26 24 21 21 19 18 18 17 16 14 14 13 13 12
2 2 4 5 6 6 7 7 7 6 6 6 8 11 12 16 18 21 24 22 22 24 25 26 27 25 25 26 24 22 21 19 19 18 17 16 16 15 13 13 13 13 12
3 3 5 6 6 7 7 7 8 8 7 7 7 8 10 11 12 18 20 20 21 23 25 26 25 26 25 23 21 20 18 18 17 16 15 14 13 13 12 11 11 9 9
4 5 5 5 6 6 7 8 10 11 10 8 8 11 17 15 17 18 20 21 24 26 26 25 24 22 22 21 19 18 17 15 15 13 12 11 12 11 11 12 10 10 9
3 3 4 4 6 7 7 9 10 10 11 10 12 14 19 16 17 17 17 17 21 22 22 21 21 21 20 18 17 16 14 12 10 10 9 9 10 10 10 9 9 8 8
3 2 2 4 5 6 6 7 7 8 8 8 8 8 8 8 8 9 10 11 11 11 14 15 13 13 14 14 15 13 11 10 10 10 8 8 8 8 8 7 8 7 7
2 1 1 2 3 4 5 5 5 6 6 6 6 6 6 6 6 7 7 8 8 8 9 9 10 10 11 11 12 12 11 11 11 10 9 8 7 7 7 7 7 7 7
1 0 1 1 1 1 2 3 4 3 3 4 3 4 4 5 4 4 5 6 6 6 6 7 7 7 6 7 7 8 10 10 9 9 9 8 6 6 6 6 6 6 6
1 1 -0 -0 0 0 1 1 2 3 2 3 3 3 3 3 3 3 4 4 4 3 4 4 4 4 4 5 4 7 7 8 5 6 7 6 5 4 4 4 4 5 5

GFSGL_sfc_temp_021.txt.gz
Temp
38 37 37 36 35 34 32 32 31 31 31 33 33 32 32 33 34 33 33 33 33 34 34 34 35 35 39 40 34 35 39 34 42 39 32 32 36 37 35 36 35 36 36
38 36 35 36 35 32 32 32 31 30 30 30 31 31 31 32 32 32 32 33 33 33 35 34 35 37 34 38 38 38 38 35 39 41 30 30 32 37 36 33 34 37 34
37 35 34 33 32 33 32 32 32 32 31 31 30 29 30 30 31 31 31 32 33 33 35 35 35 35 35 36 35 38 39 39 36 36 33 28 30 34 29 31 32 33 33
34 31 30 29 30 31 30 29 28 30 29 30 30 30 30 30 31 31 31 31 31 33 33 34 36 35 35 36 35 36 37 37 36 35 29 28 29 29 33 31 28 31 32
32 30 30 30 31 30 28 28 27 27 29 29 29 30 30 30 32 30 31 31 30 31 32 32 33 35 37 38 36 36 36 36 37 36 35 27 27 28 30 31 31 31 31
29 28 29 29 30 29 29 29 29 29 29 28 28 28 27 30 34 35 35 32 32 32 32 32 33 32 35 38 39 39 38 35 35 36 37 35 35 35 33 32 32 28 25
23 24 25 26 26 27 27 26 26 26 27 26 26 27 26 27 32 33 33 31 30 31 31 32 33 34 33 34 37 39 38 38 40 38 36 38 37 37 34 33 32 33 34
23 21 21 23 21 22 22 22 22 22 22 22 23 24 24 26 30 31 31 28 28 28 29 30 31 32 33 33 33 33 33 34 35 36 38 40 41 38 37 37 35 35 30
23 22 21 18 16 17 15 15 17 16 16 16 18 18 18 19 25 26 27 25 24 24 26 27 28 29 33 36 33 31 31 33 37 38 38 40 42 44 39 35 32 30 26
20 19 18 16 12 12 12 11 12 11 12 14 13 13 13 12 19 21 22 20 18 20 22 25 27 28 32 34 31 31 29 31 33 32 34 36 37 36 40 37 36 30 32
16 15 13 12 10 9 9 9 8 7 8 7 8 9 10 11 12 18 21 19 18 17 18 20 24 28 31 33 35 32 31 34 34 32 32 33 33 33 34 36 38 36 34
10 9 8 6 6 8 5 5 5 5 4 4 4 6 9 11 14 17 19 21 21 16 15 19 21 26 29 31 33 35 37 37 34 31 31 31 31 32 33 33 36 37 39
2 1 2 4 5 5 3 3 3 4 4 4 5 4 6 10 11 16 19 19 20 17 17 19 23 24 26 27 30 33 34 34 32 31 29 30 31 33 34 32 31 32 34
-5 2 4 4 3 3 4 4 2 2 2 3 3 4 6 8 11 12 11 11 15 16 17 16 18 21 24 25 24 30 32 31 30 31 30 31 33 31 29 29 27 26 26
1 4 3 3 2 2 3 3 4 6 8 7 9 10 10 10 13 19 20 18 17 17 14 12 12 15 17 18 20 26 27 29 30 31 30 29 28 27 27 28 27 24 24
1 3 3 3 2 3 2 3 10 13 16 17 19 17 15 19 22 22 23 24 24 24 17 14 13 14 15 16 18 21 24 26 29 31 29 29 27 25 26 25 26 23 23
-1 1 2 2 1 1 1 1 0 6 14 16 17 18 19 20 22 23 23 24 24 24 15 13 13 14 14 16 18 20 23 27 29 29 28 28 26 25 25 24 23 22 21
-5 0 -0 0 1 1 1 2 3 2 2 5 12 16 19 19 20 22 23 23 16 17 14 13 12 14 14 15 18 20 24 26 26 28 28 26 25 25 23 22 21 20 20
-2 0 -0 -0 1 2 2 2 3 3 4 4 7 11 12 16 18 18 17 11 11 12 14 14 14 14 16 18 17 20 23 23 24 26 25 26 25 23 21 22 20 20 20
-2 -0 1 -1 -1 -0 0 1 2 2 3 3 4 4 6 11 4 5 6 7 7 8 9 9 13 18 18 19 19 23 24 24 24 25 24 23 23 22 20 19 19 18 17
-2 -1 -2 -3 -3 -2 -1 -1 1 1 2 2 2 5 14 5 3 3 4 4 5 6 7 9 13 19 22 22 23 24 23 22 23 22 21 20 20 19 19 19 18 18 16
-6 -6 -4 -6 -3 -3 -3 -1 -0 0 1 1 2 4 11 4 3 3 3 3 4 5 7 7 10 12 13 15 19 20 20 19 18 18 18 18 18 16 16 15 15 14 14
-6 -6 -6 -7 -5 -4 -4 -4 -2 -0 0 1 2 2 3 2 3 2 2 3 3 4 5 5 6 8 11 12 13 14 14 14 15 16 15 15 14 14 14 13 12 12 12
-10 -10 -9 -10 -8 -6 -6 -5 -3 -2 -1 -0 0 1 1 1 2 2 3 3 4 4 4 5 6 6 7 10 11 12 12 13 14 14 14 13 12 12 12 11 11 11 11
-12 -12 -14 -14 -14 -10 -8 -7 -5 -5 -3 -2 -2 -1 -1 0 1 1 2 3 3 3 4 4 5 7 8 8 9 10 12 12 12 13 13 12 11 11 10 10 9 10 10
-10 -12 -16 -17 -16 -16 -15 -10 -9 -8 -7 -5 -4 -4 -3 -2 -1 0 1 2 2 3 3 4 4 5 7 10 11 12 12 13 11 11 11 11 9 9 9 9 9 8 8

GFSGL_sfc_temp_024.txt.gz
Temp
34 34 33 33 33 33 31 31 31 30 30 31 31 31 31 30 31 29 30 31 30 31 31 31 32 32 33 34 32 35 39 39 36 41 34 34 32 36 35 37 37 37 40
34 33 33 33 31 30 31 31 29 31 32 29 30 30 31 30 30 29 29 29 28 30 32 31 31 35 31 32 32 33 32 36 37 35 40 30 32 34 37 34 35 37 36
33 32 31 30 29 28 29 29 29 29 29 29 29 29 30 30 29 30 30 30 30 30 30 31 31 31 31 33 34 34 34 37 35 35 36 30 31 30 30 32 33 34 35
32 31 29 28 28 28 27 27 26 27 26 27 28 28 29 29 30 30 30 29 30 31 31 31 31 31 31 32 34 35 35 34 34 34 34 35 29 29 33 32 29 31 32
31 30 29 28 28 27 26 26 27 27 28 28 28 27 28 29 30 29 30 29 29 29 31 32 32 32 34 35 33 33 34 34 34 32 33 34 30 27 30 32 33 32 32
27 25 27 26 26 26 25 25 25 25 25 25 24 24 24 27 30 31 31 29 29 28 28 29 30 31 33 36 37 38 37 32 32 32 32 32 35 33 35 34 32 30 29
22 21 21 22 21 22 21 22 21 20 20 20 20 21 20 22 26 28 28 27 26 26 26 27 28 31 31 31 34 36 36 38 40 36 33 33 34 37 36 32 32 34 35
20 17 17 19 17 18 18 16 16 17 16 16 16 16 16 18 22 23 24 22 21 22 24 25 25 26 27 28 29 29 30 32 33 36 37 37 37 38 37 36 36 34 37
20 19 17 15 12 14 11 12 13 12 12 11 13 12 11 11 17 19 21 18 18 18 21 22 22 23 26 28 26 24 26 29 35 38 39 39 40 41 41 35 32 31 30
18 18 16 14 8 9 10 9 10 9 10 11 10 10 9 8 14 17 19 16 13 16 18 21 23 23 26 28 24 22 21 24 28 31 32 35 38 37 40 36 33 31 31
14 13 11 11 8 7 7 8 6 6 7 5 6 7 7 9 9 16 19 17 15 14 14 16 19 23 24 25 27 23 23 27 28 30 31 31 32 33 36 37 35 34 32
9 7 6 4 5 7 3 4 4 3 2 2 3 5 8 10 13 16 19 21 21 16 15 17 18 22 23 25 25 25 27 28 26 27 28 29 31 32 34 35 35 33 37
0 -3 -2 1 4 4 1 2 1 2 1 1 3 3 5 9 10 16 19 20 21 17 17 19 23 25 26 25 24 25 24 21 22 23 26 29 31 34 35 34 35 34 33
-10 -3 1 1 2 1 4 4 2 0 1 2 2 3 6 10 13 15 15 15 18 18 18 17 19 22 24 23 20 21 20 20 20 21 25 30 33 32 32 33 31 31 29
-5 1 1 1 -2 2 3 3 4 6 7 7 10 11 11 11 13 20 21 19 19 21 21 20 16 10 10 11 12 16 19 18 19 22 26 28 30 29 29 31 30 29 27
-2 1 1 1 2 2 2 2 10 13 15 17 19 17 15 19 21 23 23 24 24 25 20 18 17 17 16 15 13 14 16 17 19 21 26 26 27 28 28 29 28 28 24
-9 -2 -0 1 -0 -0 0 -0 -2 5 13 14 16 17 18 19 20 21 22 22 22 21 13 12 13 14 15 15 14 14 14 18 21 21 23 24 26 29 26 26 25 26 23
-12 -4 -3 -2 -2 -1 -1 -0 0 -1 -1 2 10 13 15 16 18 19 18 15 4 8 8 9 9 10 13 14 14 14 15 17 19 21 24 26 28 27 24 25 24 24 23
-9 -6 -6 -3 -1 -0 -1 -1 -0 0 1 1 3 7 8 13 16 14 13 4 3 3 5 6 7 8 10 12 14 14 14 15 18 21 23 25 27 25 25 25 24 23 23
-12 -6 -2 -7 -3 -4 -3 -3 -2 -1 -1 -0 0 1 3 8 2 2 3 3 2 3 4 4 5 7 11 14 17 17 17 15 17 20 23 24 25 25 25 23 23 21 21
-13 -10 -6 -8 -8 -6 -5 -5 -3 -3 -2 -2 -0 3 14 3 1 1 2 2 2 2 2 3 4 6 8 10 12 18 19 20 22 23 24 24 23 23 24 23 22 21 21
-15 -15 -14 -9 -6 -7 -8 -5 -5 -5 -3 -2 -0 1 9 1 1 1 2 3 3 4 4 3 4 6 7 8 10 11 14 15 17 18 19 19 19 20 20 19 19 19 17
-14 -13 -8 -7 -8 -9 -9 -11 -10 -7 -6 -5 -3 -2 -1 -1 -1 0 1 3 3 4 5 5 5 6 8 9 11 11 10 10 13 15 15 15 15 15 16 16 15 14 14
-13 -10 -6 -6 -12 -12 -12 -12 -11 -9 -8 -8 -8 -6 -4 -4 -3 -2 -0 2 3 4 5 5 5 6 7 9 10 10 12 13 13 13 13 12 12 13 13 13 13 13 13
-9 -6 -6 -8 -16 -15 -17 -17 -13 -16 -14 -12 -9 -8 -7 -6 -5 -4 -3 -1 1 2 2 4 5 5 7 10 10 10 11 11 11 13 13 12 11 11 11 11 11 11 11
-5 -6 -7 -11 -15 -18 -21 -20 -18 -15 -15 -11 -11 -10 -9 -8 -7 -6 -4 -4 -2 -1 0 2 3 4 5 10 12 15 15 14 11 11 11 11 10 10 10 10 10 9 9

GFSGL_sfc_temp_027.txt.gz
Temp
33 32 31 31 30 30 30 29 28 28 29 29 29 29 29 29 29 28 27 28 28 29 29 28 29 30 31 30 30 31 33 33 32 37 38 36 34 33 35 35 37 38 40
32 31 32 31 30 29 29 29 28 28 28 28 28 28 28 29 28 28 28 28 27 28 29 29 29 32 28 29 29 30 31 33 32 31 36 36 33 34 34 33 35 37 37
32 31 30 30 28 27 27 27 27 26 26 26 27 26 27 28 28 28 27 28 27 28 28 28 28 29 29 29 29 29 30 33 33 32 32 34 32 29 32 32 32 33 35
30 30 28 28 28 27 26 26 25 25 24 25 25 26 26 26 27 27 28 27 27 28 29 29 29 28 28 28 29 30 31 30 31 31 31 32 33 32 30 30 29 31 32
29 29 27 27 27 25 24 23 24 24 24 23 23 23 23 24 27 26 27 26 26 26 28 29 29 29 32 32 31 30 30 29 29 29 30 31 31 27 30 31 32 34 32
27 24 25 23 23 22 21 21 21 21 20 20 20 19 19 23 25 26 26 23 24 24 24 26 27 27 29 32 33 34 34 30 29 30 30 29 31 32 33 33 32 30 28
21 18 19 20 19 19 19 18 18 17 17 16 16 17 16 16 21 24 24 22 21 20 21 22 23 26 25 26 28 31 31 33 34 31 29 31 31 33 33 32 33 33 33
19 16 16 18 15 16 15 14 14 14 13 13 13 13 13 15 19 20 21 20 19 19 19 20 20 21 22 23 24 22 24 25 27 29 29 31 33 35 35 35 34 35 35
19 18 16 15 11 12 8 10 11 10 10 9 11 10 8 9 16 18 19 16 16 16 18 19 20 19 22 25 23 19 20 22 28 30 32 34 35 37 38 35 32 31 30
18 18 16 13 6 6 8 8 8 7 9 10 9 8 8 6 13 17 19 16 13 15 17 19 21 22 24 25 22 19 16 19 22 21 24 28 31 32 36 36 34 31 30
15 13 11 10 6 6 5 6 5 4 6 4 5 5 6 8 8 16 19 17 15 14 14 16 19 23 24 25 26 21 19 22 22 22 22 24 25 28 31 33 35 34 31
11 8 6 1 2 5 -5 1 -0 -0 -0 0 1 2 6 9 13 16 19 21 22 17 15 18 19 23 24 25 25 26 27 26 22 19 18 19 22 24 28 33 33 35 37
4 -2 -5 -1 2 2 -4 0 -0 -2 -2 0 2 2 4 9 10 16 19 21 22 19 20 22 26 27 28 27 26 26 24 20 17 15 15 17 21 25 29 29 33 33 34
-0 -2 -0 -2 -1 -1 3 3 0 -1 -0 1 2 3 6 11 14 16 15 16 19 20 21 20 21 23 24 25 21 22 21 20 18 17 16 19 21 21 23 26 28 29 29
-0 2 -1 -2 -3 -1 1 2 3 5 6 7 10 11 11 10 13 20 21 19 19 21 21 18 17 18 17 18 15 14 15 15 14 15 16 16 17 19 20 25 29 28 27
0 2 -1 -0 -1 1 0 1 9 13 16 17 19 17 15 19 21 22 22 23 23 22 14 8 7 9 10 12 12 14 17 16 15 15 15 16 16 18 20 25 29 28 28
-4 -2 -2 -0 -2 -3 -2 -2 -4 3 12 13 15 16 17 18 19 20 21 20 16 14 1 3 4 6 7 8 9 10 12 16 17 15 16 16 18 18 19 25 26 28 27
-5 -4 -7 -4 -6 -7 -5 -4 -3 -4 -4 -1 7 11 15 16 18 18 17 10 1 3 1 1 2 4 5 6 7 10 13 14 15 15 16 17 18 19 23 24 25 25 25
-7 -4 -5 -8 -7 -5 -5 -4 -4 -3 -3 -2 -0 5 6 11 15 13 12 -2 -0 -0 1 1 2 2 3 5 7 9 11 15 15 14 14 16 18 19 24 25 25 25 25
-11 -6 -6 -10 -10 -10 -6 -7 -4 -4 -4 -4 -3 -2 1 5 -0 -1 0 0 0 1 2 1 2 2 3 5 6 8 10 13 15 14 15 17 19 21 22 24 25 24 24
-14 -15 -8 -12 -16 -14 -12 -10 -5 -7 -6 -6 -4 0 12 -0 -3 -3 -2 -0 1 1 2 3 3 3 4 6 7 8 9 10 13 16 19 19 21 21 24 23 22 23 23
-14 -15 -19 -18 -14 -12 -13 -6 -6 -9 -8 -6 -4 -2 7 -3 -4 -4 -3 -2 -0 2 4 4 4 4 5 6 7 8 8 10 11 12 14 15 16 18 19 20 20 21 20
-13 -16 -17 -17 -14 -12 -9 -8 -10 -12 -11 -10 -9 -7 -6 -7 -7 -6 -5 -4 -2 -1 2 3 3 4 6 7 10 10 9 9 11 12 12 11 10 8 9 12 13 15 15
-17 -16 -14 -15 -13 -10 -8 -7 -11 -11 -12 -12 -15 -14 -9 -8 -9 -8 -7 -5 -4 -3 -1 1 2 3 4 6 10 13 12 12 11 11 11 10 10 12 12 11 12 12 13
-19 -16 -15 -13 -13 -9 -9 -13 -12 -18 -18 -16 -14 -16 -12 -11 -10 -9 -8 -7 -6 -5 -4 -2 1 1 2 3 7 12 15 12 11 11 10 10 9 10 10 11 11 12 12
-8 -12 -13 -11 -9 -8 -12 -14 -14 -16 -17 -15 -15 -15 -14 -12 -11 -10 -9 -9 -8 -8 -7 -4 -2 -3 -1 3 5 13 15 17 11 11 10 9 9 9 9 9 9 9 10

GFSGL_sfc_temp_030.txt.gz
Temp
31 30 30 29 28 29 28 27 27 27 27 27 28 27 27 27 26 25 25 26 25 26 26 26 27 27 28 28 29 30 29 29 28 32 36 35 35 37 38 35 35 35 37
31 30 31 30 29 28 27 27 26 26 27 27 27 26 26 26 26 25 25 25 25 25 26 26 26 30 26 27 26 27 28 28 27 27 32 33 31 33 36 36 37 36 35
30 30 30 29 28 27 26 26 26 25 24 24 25 24 24 25 25 25 25 26 26 26 26 26 26 26 26 26 26 27 28 30 28 28 28 32 33 30 31 31 34 35 35
29 29 28 27 27 26 25 24 24 24 23 22 22 23 23 23 24 25 25 24 24 25 25 26 26 26 26 25 26 26 28 27 27 27 28 29 30 32 28 29 31 30 33
28 28 27 27 25 24 22 21 21 21 21 21 21 20 21 22 25 24 24 23 22 22 23 24 24 25 28 29 28 26 26 25 25 26 27 28 29 29 28 30 29 31 32
27 26 26 23 22 20 20 20 20 19 18 18 18 17 16 20 23 24 25 22 21 21 20 21 22 22 24 26 28 29 30 26 23 24 26 26 28 31 32 30 31 30 28
22 19 19 19 18 18 17 17 17 15 15 15 15 15 14 15 21 23 23 21 20 19 19 19 20 22 21 22 23 25 26 27 29 27 23 24 25 29 30 29 29 30 31
20 17 16 17 15 15 14 13 13 13 12 12 12 11 12 14 19 21 22 20 18 18 18 19 18 19 20 21 21 20 21 22 24 25 24 24 25 26 27 29 28 30 31
19 19 16 14 11 12 7 9 10 9 9 8 11 8 8 9 16 19 20 17 17 16 18 19 19 18 21 24 21 18 19 21 26 28 29 30 31 31 31 28 24 25 25
19 19 16 13 7 6 9 6 7 4 9 10 9 8 7 6 13 17 19 17 13 15 16 19 21 22 24 26 22 19 16 18 20 19 21 24 27 26 30 27 24 20 23
15 14 11 10 6 5 4 5 1 1 6 2 4 5 5 7 7 16 20 19 16 15 16 17 20 24 25 26 27 22 20 22 22 21 21 21 22 23 24 25 27 25 22
11 10 8 6 4 6 -5 -3 -4 -3 -3 -2 -1 2 6 8 12 17 21 23 23 18 16 19 19 24 25 26 26 27 28 28 22 19 18 17 18 19 22 24 25 27 27
7 6 2 3 6 5 -3 -1 -2 -6 -5 -1 2 2 5 9 10 18 21 22 24 20 20 23 27 27 27 25 24 26 25 21 19 17 17 18 20 21 23 22 23 24 25
-1 4 5 4 4 3 4 4 -4 -4 -2 0 0 2 5 11 13 15 15 18 21 20 21 20 21 20 21 21 18 20 19 18 17 16 16 19 21 20 18 20 17 19 18
0 3 4 4 2 2 3 2 2 3 4 1 5 10 10 10 13 21 21 19 19 20 18 11 7 7 8 9 11 12 13 13 13 14 14 14 15 16 16 18 18 17 15
2 5 5 4 2 3 2 1 9 13 16 18 20 18 14 19 21 22 23 23 21 19 7 -0 1 3 4 5 5 7 9 9 11 13 14 14 14 14 14 16 17 16 15
-2 4 3 3 1 0 -1 -3 -4 2 11 13 15 16 17 19 19 21 21 20 14 12 -6 -2 -1 0 2 3 4 5 5 8 11 12 13 14 15 15 15 15 16 17 16
-2 2 -1 -1 -2 -3 -4 -4 -4 -6 -7 -3 5 10 14 15 17 18 17 9 -2 -1 -11 -3 -1 0 1 2 3 4 5 7 8 11 14 14 14 14 14 15 17 19 22
-2 -2 -3 -3 -3 -4 -4 -4 -6 -6 -6 -6 -3 3 4 11 13 12 11 -11 -5 -3 -1 -1 1 1 2 2 3 4 5 6 8 10 13 14 14 14 14 16 17 20 23
-4 -2 -3 -9 -9 -10 -7 -8 -7 -8 -8 -8 -6 -4 -3 -3 -11 -10 -11 -13 -9 -4 -1 -0 1 2 3 3 3 4 6 7 8 9 11 13 16 15 15 17 20 20 22
-9 -12 -8 -13 -14 -13 -13 -11 -9 -11 -10 -9 -6 -2 9 -1 -8 -11 -8 -8 -7 -5 -3 -1 0 1 3 4 4 5 6 8 9 9 10 11 13 13 17 20 21 22 22
-15 -12 -15 -14 -13 -13 -13 -11 -10 -11 -10 -7 -4 -4 6 -6 -8 -9 -8 -8 -7 -6 -4 -3 -1 1 2 3 4 4 6 8 9 9 9 10 11 12 13 15 16 19 19
-12 -14 -16 -19 -16 -14 -15 -15 -14 -12 -8 -7 -8 -8 -10 -13 -13 -12 -10 -9 -8 -6 -5 -5 -4 -2 0 3 3 5 6 9 11 10 8 9 10 11 11 11 12 13 13
-14 -14 -14 -15 -18 -16 -14 -13 -11 -7 -7 -8 -15 -15 -12 -12 -15 -13 -12 -10 -9 -8 -7 -6 -5 -5 -3 -2 1 3 5 10 12 10 9 8 9 10 10 10 12 13 13
-21 -18 -17 -14 -14 -11 -11 -10 -7 -8 -9 -13 -12 -15 -16 -16 -14 -14 -12 -13 -11 -10 -9 -8 -6 -6 -5 -5 -4 -1 2 10 10 11 9 9 8 9 9 9 10 11 12
-6 -8 -8 -8 -10 -10 -9 -7 -7 -8 -10 -12 -14 -16 -17 -15 -14 -13 -13 -13 -11 -10 -10 -9 -7 -9 -7 -5 -3 2 6 14 12 10 8 8 8 8 8 8 8 9 9

GFSGL_sfc_temp_033.txt.gz
Temp
33 33 33 32 32 32 32 31 31 31 31 30 30 30 30 29 30 29 29 30 28 29 30 30 29 31 31 32 32 32 31 32 28 33 38 39 39 39 41 42 43 42 44
33 32 33 32 32 31 30 30 30 29 29 29 28 28 28 28 28 27 27 27 27 27 28 28 28 30 28 30 30 30 30 31 29 26 32 34 35 38 39 38 40 42 42
32 32 32 31 31 30 29 29 29 28 27 27 26 26 25 25 26 26 27 26 26 26 26 26 26 26 26 27 28 28 29 30 30 28 27 32 34 36 36 37 38 38 40
32 31 31 30 30 29 28 27 26 26 25 24 24 24 24 24 25 27 26 25 25 25 25 25 25 24 24 24 25 25 27 27 27 27 27 28 31 34 35 33 33 38 37
31 31 30 30 28 27 25 24 24 23 23 23 22 21 22 23 26 25 25 24 23 23 24 24 24 24 25 25 25 25 25 24 24 24 25 27 28 29 30 34 33 35 37
30 30 29 27 24 22 22 22 21 20 20 19 19 18 17 21 23 25 26 23 22 21 21 22 23 22 23 25 25 26 26 22 20 20 22 23 25 27 29 29 29 28 27
26 24 23 22 21 20 20 19 19 17 17 16 16 16 15 16 21 24 24 22 21 20 20 20 20 22 21 21 23 24 25 25 26 25 21 22 23 25 26 25 26 26 26
24 21 20 20 18 17 16 16 15 15 14 14 14 13 14 15 20 22 23 22 19 20 20 20 19 20 21 21 21 21 22 23 24 26 24 24 26 27 27 27 25 25 28
23 22 19 18 15 15 12 12 13 12 12 10 13 11 9 10 17 21 21 19 18 18 20 20 20 20 22 24 22 20 21 22 27 28 29 30 31 31 31 28 23 21 20
23 22 19 16 11 10 12 10 10 9 11 11 10 10 8 8 14 18 20 19 16 18 19 20 22 23 26 27 23 21 18 21 23 22 24 26 28 27 29 28 25 20 20
19 17 15 13 10 10 8 9 7 5 8 4 6 7 7 8 9 17 21 20 19 18 19 20 22 25 26 28 28 24 22 25 24 23 23 23 24 24 25 26 27 25 21
15 13 11 7 10 8 2 4 2 2 1 1 1 4 8 10 13 17 21 24 25 20 19 21 22 25 27 27 26 26 27 27 23 22 21 21 22 23 25 26 27 27 27
11 7 5 5 6 5 1 3 5 2 1 2 5 5 7 11 12 17 21 22 24 22 23 24 24 23 23 20 20 22 21 18 17 16 16 18 21 23 25 24 25 25 25
6 5 5 4 5 4 7 6 3 3 2 3 3 4 6 8 12 16 16 18 21 22 20 15 16 15 15 15 13 15 15 15 14 13 14 17 19 19 18 21 19 20 19
5 6 5 4 3 6 6 7 7 6 5 -1 1 4 5 10 13 21 22 21 20 19 11 7 5 5 6 7 8 9 10 11 10 11 12 12 14 16 16 19 18 17 15
5 5 5 5 5 6 5 5 11 15 17 19 21 20 16 19 21 23 23 24 22 19 5 -1 1 2 3 4 4 5 7 8 9 10 10 11 12 14 15 17 18 16 15
3 4 5 5 5 4 3 1 -0 5 11 13 16 19 19 18 21 21 22 21 15 11 -1 -1 -1 1 2 3 4 5 5 7 8 9 10 10 12 14 15 15 16 16 15
-3 2 2 3 2 1 0 -0 -2 -4 -5 -2 5 10 13 17 17 19 18 10 -2 -1 -3 -3 -1 0 2 3 4 4 5 6 7 9 10 10 12 13 14 14 15 15 16
-4 -2 -2 -2 -2 -1 -1 -2 -3 -4 -4 -5 -3 2 5 10 13 14 11 -3 -6 -4 -2 -2 -0 0 2 3 4 4 5 5 6 7 9 10 11 12 13 15 16 15 16
-8 -1 -2 -4 -4 -5 -4 -4 -4 -5 -5 -6 -5 -4 -4 -4 -4 -5 -6 -7 -7 -6 -4 -3 -2 -0 0 2 3 4 4 5 6 8 10 10 11 11 12 13 15 16 19
-10 -10 -6 -10 -11 -10 -8 -7 -6 -7 -8 -7 -6 -2 7 6 -1 -6 -7 -7 -8 -7 -5 -5 -4 -2 -1 0 1 3 3 4 6 8 10 10 10 9 11 13 14 15 18
-14 -13 -16 -16 -11 -10 -9 -8 -8 -9 -8 -8 -5 -3 7 -0 -3 -6 -6 -7 -7 -7 -7 -6 -5 -4 -3 -2 -1 1 1 2 5 7 10 9 9 10 11 12 13 14 16
-12 -16 -16 -15 -11 -10 -10 -10 -10 -11 -10 -9 -7 -5 -5 -6 -8 -8 -8 -8 -8 -8 -6 -8 -6 -6 -3 -3 -1 -1 -0 1 5 6 10 9 8 9 10 10 11 12 14
-17 -15 -13 -13 -14 -14 -11 -9 -10 -9 -10 -8 -9 -8 -7 -7 -11 -11 -11 -10 -9 -9 -8 -8 -7 -7 -7 -5 -3 -2 -1 1 5 8 10 8 8 9 9 9 10 11 13
-21 -18 -15 -12 -14 -14 -14 -12 -9 -10 -9 -7 -6 -7 -7 -10 -11 -12 -12 -12 -12 -10 -10 -9 -8 -8 -8 -7 -7 -6 -4 0 6 12 8 7 7 6 7 8 8 10 10
-14 -13 -11 -7 -8 -8 -8 -7 -6 -5 -5 -5 -6 -7 -10 -12 -12 -13 -13 -14 -13 -11 -11 -10 -9 -10 -10 -7 -5 -2 2 8 13 10 6 5 4 5 6 6 5 7 8

GFSGL_sfc_temp_036.txt.gz
Temp
43 43 42 41 42 42 41 41 40 39 38 37 37 36 36 35 35 35 35 35 33 34 35 35 34 35 35 36 36 35 35 35 30 35 38 41 40 40 42 43 44 45 46
43 42 42 41 41 41 40 39 38 38 36 35 35 34 34 33 33 33 32 33 32 32 32 32 32 33 31 33 33 32 32 34 31 28 33 35 36 38 39 39 41 43 44
42 41 41 40 40 40 39 37 36 36 35 34 33 32 32 31 32 32 32 31 31 31 31 30 30 30 28 29 30 29 30 31 30 29 29 33 35 37 36 38 39 40 43
41 41 40 40 40 39 38 36 35 34 33 32 31 31 30 30 30 31 31 31 30 30 30 30 29 28 27 27 26 26 27 27 27 27 28 29 30 33 35 33 34 39 39
41 40 40 40 39 37 34 32 31 30 31 30 29 28 28 28 30 28 29 29 28 28 29 29 29 28 26 26 26 25 25 24 24 23 24 26 26 27 27 30 30 33 34
41 39 41 38 34 31 30 28 28 27 26 26 25 24 23 27 25 25 27 27 27 26 26 27 27 26 27 26 26 26 26 22 20 21 22 22 24 26 27 27 27 26 25
35 34 33 32 30 29 28 26 26 25 25 23 23 23 22 23 23 25 25 25 25 25 24 24 24 26 25 25 25 26 26 26 27 25 22 23 24 26 27 25 25 25 26
34 32 31 29 28 27 25 24 25 24 23 22 22 21 21 22 22 23 24 25 24 24 24 24 23 24 25 24 24 24 24 25 26 28 27 27 28 29 28 27 26 26 28
33 32 29 28 25 24 22 23 23 22 21 20 20 18 16 17 19 21 23 23 23 22 24 25 25 24 25 26 25 22 24 25 29 30 31 31 31 32 32 29 24 23 22
33 32 30 27 23 21 22 20 21 20 19 19 18 17 15 13 17 20 22 23 21 22 23 25 26 26 27 28 26 23 22 24 25 25 26 28 29 30 30 29 26 21 22
31 28 25 24 21 21 20 19 17 16 16 14 14 15 14 14 16 19 21 22 22 23 23 24 25 27 27 27 28 24 23 25 23 23 24 26 27 28 29 29 28 26 22
26 24 22 19 20 18 15 15 13 13 12 12 13 14 17 16 17 20 22 24 25 23 22 24 25 26 25 25 23 23 24 23 20 20 20 21 22 24 26 27 28 28 29
21 19 17 16 16 15 13 13 14 13 13 16 15 16 17 18 19 20 21 23 24 23 25 25 22 21 20 19 19 19 18 17 16 15 15 17 20 22 23 23 24 25 25
19 17 15 13 14 12 15 15 15 15 15 15 14 15 16 17 18 20 21 22 22 24 22 18 18 17 17 17 15 16 15 15 13 12 14 16 18 18 18 20 19 21 20
18 16 16 16 13 15 15 17 16 17 16 14 14 14 14 16 18 21 23 23 24 22 18 15 13 12 11 12 13 13 14 13 12 13 13 13 14 15 16 19 19 19 17
17 16 17 17 16 16 16 16 17 18 19 20 22 22 21 20 23 23 24 24 23 20 14 10 9 9 9 10 10 10 12 11 12 11 11 12 12 13 14 16 18 18 17
18 17 16 14 16 15 14 13 13 15 16 17 18 19 21 22 22 22 23 23 16 14 9 8 7 8 8 9 9 9 9 11 10 11 11 12 12 13 13 14 16 18 17
13 10 15 15 14 14 12 12 11 9 9 10 11 12 14 16 19 20 21 17 10 8 5 5 5 6 7 7 8 8 8 9 9 10 10 11 12 12 12 13 14 14 16
10 12 11 11 10 9 9 9 8 7 7 6 7 9 9 11 14 16 15 8 5 3 5 4 5 5 5 6 6 7 7 7 8 8 9 11 12 12 11 12 13 13 14
6 4 5 8 8 6 6 6 6 5 5 4 5 5 6 4 6 7 6 4 3 3 3 3 4 4 4 4 5 5 5 6 7 8 9 10 12 13 11 11 12 12 14
6 6 2 4 4 4 4 3 4 4 3 3 4 6 8 5 7 7 5 4 3 2 2 2 3 2 3 3 3 4 4 5 5 7 8 10 11 10 12 12 12 13 14
3 3 2 0 2 2 2 2 2 2 2 2 3 5 8 7 7 5 4 3 2 2 1 1 1 1 2 1 2 2 2 2 4 6 7 7 10 12 11 11 12 13 14
0 0 0 -0 -1 -2 -2 -0 -0 0 0 0 1 1 2 2 2 2 1 1 0 -0 1 -0 -1 -1 1 1 2 2 1 1 3 4 3 6 10 11 11 11 11 11 12
0 0 -0 0 -1 -1 -1 -1 -0 -2 -2 -1 -0 0 1 1 1 0 -1 -1 -2 -1 -1 -2 -2 -3 -2 -2 0 1 2 2 3 3 4 8 10 10 10 10 10 10 12
-1 -1 -1 -1 -2 -2 -2 -2 -2 -2 -1 -1 -0 0 0 0 -1 -2 -2 -3 -4 -4 -3 -3 -3 -2 -3 -4 -4 -3 -2 -1 -0 4 9 11 10 8 9 9 9 10 10
-0 -1 -1 -1 -1 -1 -1 -1 -1 -0 -0 1 1 1 0 -1 -2 -3 -4 -5 -6 -5 -4 -4 -4 -4 -5 -3 -2 -1 -0 4 7 11 11 12 9 9 9 10 8 10 9

GFSGL_sfc_temp_042.txt.gz
Temp
39 39 37 36 37 37 35 34 33 33 33 32 32 31 31 30 29 28 28 28 27 27 27 27 27 27 26 25 25 26 25 24 21 25 28 29 28 28 30 31 32 32 34
38 37 36 37 36 34 34 34 32 31 32 31 31 30 30 30 29 28 28 28 27 27 27 27 26 30 25 24 23 23 23 23 21 20 24 25 25 26 27 27 30 34 32
38 36 35 34 33 33 32 32 32 31 30 30 30 29 29 29 29 28 28 28 27 27 27 26 25 25 24 23 22 21 21 25 22 21 20 23 24 25 25 27 27 27 32
38 35 34 33 33 33 32 31 31 30 29 28 29 29 28 28 29 28 29 27 27 27 27 27 26 25 24 22 23 22 24 21 21 20 20 21 22 25 24 23 23 26 26
37 34 34 33 33 32 30 30 29 29 29 29 28 27 27 27 29 27 27 26 25 25 26 27 27 26 30 28 26 22 22 19 19 19 19 20 20 22 22 24 23 24 25
36 35 34 33 33 31 29 28 28 28 27 26 26 25 24 29 32 30 28 25 26 26 25 25 26 25 27 29 29 30 28 22 19 18 20 19 21 23 24 23 23 21 18
33 31 31 32 32 28 28 27 26 24 25 23 23 23 23 23 31 30 29 26 25 24 25 25 26 27 24 25 27 28 28 28 30 26 22 22 21 23 24 22 23 22 21
33 31 31 31 28 26 26 25 23 23 23 21 21 22 22 23 30 30 29 25 23 24 24 24 24 24 24 25 24 23 24 25 26 27 26 26 26 28 26 25 24 24 25
32 31 32 30 27 26 25 23 23 22 20 19 19 17 17 17 28 29 27 21 22 22 25 24 24 23 26 29 26 20 21 22 27 28 28 29 29 29 28 24 19 18 17
32 32 30 29 28 26 25 21 20 18 21 21 20 17 16 14 25 27 27 21 13 19 21 25 27 27 29 30 25 19 16 18 20 19 18 20 22 23 25 24 21 17 17
28 28 27 27 28 26 21 18 19 16 19 15 16 14 14 15 14 25 27 22 19 17 18 20 23 27 29 30 29 20 17 23 14 11 13 14 16 17 19 21 23 20 15
27 26 24 22 23 21 19 14 16 15 12 10 9 11 15 16 19 22 26 27 25 19 17 21 22 27 28 27 26 25 25 21 7 8 9 10 12 14 17 18 20 20 21
23 20 16 17 18 17 17 14 11 11 12 11 13 12 13 17 17 25 26 26 27 24 22 23 27 26 25 21 22 23 18 9 6 2 7 10 14 15 17 16 17 18 19
17 16 15 16 14 13 15 15 14 12 11 12 13 14 10 12 14 16 17 17 22 22 23 18 19 23 23 20 14 16 14 12 10 9 10 13 13 12 12 14 12 13 12
17 16 15 14 13 11 13 14 15 12 15 8 9 9 8 9 13 20 17 12 13 17 18 10 5 5 5 7 6 7 9 9 8 9 9 8 9 10 10 12 11 11 9
16 15 14 13 11 11 10 8 23 23 25 27 27 17 7 20 24 25 27 27 27 27 13 -1 -1 2 4 4 3 5 7 8 8 7 7 7 7 8 8 9 11 9 8
12 13 12 12 11 9 8 7 6 14 26 26 27 27 27 27 26 26 27 27 27 26 2 -2 3 3 1 4 2 4 6 7 5 6 6 6 6 6 6 7 8 9 8
8 10 10 7 7 6 5 6 5 3 1 3 15 20 22 22 23 24 24 24 18 18 -4 0 2 3 -1 -1 0 3 4 2 1 2 3 2 3 4 4 5 7 6 7
8 6 6 6 4 4 4 2 1 1 -1 -3 -2 8 11 18 19 21 22 16 13 6 1 -2 0 -1 1 -1 -5 -1 -4 -3 -5 -4 -2 -0 2 3 3 5 5 6 8
1 4 4 3 1 0 1 -1 -1 -2 -3 -3 -5 -2 -3 -7 -10 -9 -3 3 -3 1 -3 -3 -2 -3 -3 -3 -10 -4 -7 -8 -9 -11 -8 -5 1 2 3 3 3 5 7
-0 -3 -0 -3 -5 -6 -6 -5 -3 -4 -3 -7 -6 -0 13 7 4 -4 -3 0 0 -5 0 1 -0 -1 -3 -8 -11 -7 -10 -6 -11 -13 -12 -5 -1 -0 0 2 3 6 7
-3 -5 -9 -10 -7 -6 -7 -4 -5 -7 -8 -9 -6 -4 10 2 -0 2 4 5 1 2 3 0 -3 -3 -2 -8 -7 -10 -11 -10 -12 -14 -10 -6 -2 -3 -2 0 3 7 6
-6 -7 -9 -9 -7 -3 -6 -10 -11 -11 -11 -12 -10 -7 -10 -10 -7 -3 1 -1 1 2 1 -1 -1 -2 -2 -6 -8 -8 -8 -7 -9 -16 -9 -5 -4 -4 -3 -1 4 4 4
-8 -7 -4 -5 -7 -8 -9 -10 -10 -10 -12 -13 -15 -13 -7 -7 -10 -6 -2 2 1 1 0 -0 -1 -2 -2 -9 -11 -12 -11 -8 -13 -7 -12 -5 -4 -3 -3 0 5 3 3
-5 -4 -4 -7 -11 -10 -11 -13 -12 -15 -15 -11 -10 -9 -9 -8 -6 -4 0 1 0 -0 -1 -1 -2 -3 -5 -9 -9 -13 -12 -3 -6 -7 -12 -9 -6 -6 -3 4 2 -1 -2
-3 -6 -8 -9 -11 -13 -15 -14 -14 -13 -12 -10 -9 -8 -9 -6 -3 0 -1 -0 -1 -1 -2 -3 -4 -5 -8 -8 -10 -8 -8 -2 -4 -5 -5 -5 -2 2 7 3 -5 -7 -6

GFSGL_sfc_temp_045.txt.gz
Temp
39 37 37 36 36 36 34 33 32 31 31 31 30 30 29 28 28 27 27 27 27 27 26 26 26 26 24 24 24 24 24 22 19 24 24 26 25 25 26 27 28 28 29
38 37 35 36 34 34 33 32 31 31 31 30 29 29 29 29 28 28 27 27 26 26 26 26 25 29 24 23 22 22 21 21 20 19 23 23 22 24 24 24 28 30 28
37 35 34 34 33 33 32 31 30 29 29 29 29 28 28 28 28 28 28 28 27 27 26 26 25 25 23 23 22 21 21 24 21 20 19 22 23 24 23 25 26 26 30
36 35 34 33 33 32 31 30 30 29 28 28 28 28 28 28 28 28 28 27 26 27 27 26 25 24 24 22 23 22 23 21 21 20 20 21 22 25 24 23 23 26 26
36 34 34 33 32 30 30 29 28 28 29 28 27 27 27 27 29 27 28 26 25 25 25 27 26 26 29 29 26 22 21 19 19 19 19 20 21 22 22 24 23 24 25
37 34 34 32 32 30 30 29 29 28 27 26 25 25 24 29 33 34 29 25 26 25 24 25 25 24 27 30 30 30 29 21 13 16 20 20 21 22 23 22 22 20 18
34 33 32 33 32 31 30 29 28 27 25 24 24 24 23 24 33 34 32 26 25 24 24 25 25 27 24 24 26 28 28 29 30 26 21 21 20 22 23 21 21 20 20
34 32 32 33 32 29 28 28 27 25 24 23 23 23 22 23 31 33 32 26 24 23 23 24 24 24 24 23 23 22 23 24 24 26 24 23 24 25 23 22 20 18 20
34 32 32 33 31 29 28 27 26 24 21 21 20 18 18 19 31 32 31 23 23 22 24 24 23 23 26 28 25 21 19 21 26 28 28 27 26 26 24 20 14 13 13
34 34 33 32 31 29 29 25 21 22 23 22 21 19 18 17 28 31 30 22 15 19 20 23 25 25 28 30 25 18 13 17 20 15 15 18 20 19 22 20 16 11 12
31 30 29 30 29 28 25 21 19 19 20 17 19 18 17 17 16 29 30 24 19 16 17 18 22 26 28 29 30 21 15 23 10 6 10 12 14 15 17 19 19 16 11
27 27 26 25 26 23 22 16 17 18 19 16 14 13 14 15 20 25 28 29 28 17 15 20 21 26 28 29 29 25 27 23 3 2 4 8 10 13 15 16 17 17 18
23 22 21 18 20 19 18 17 16 17 18 16 15 14 13 16 16 25 28 28 29 25 23 23 26 28 29 26 23 25 20 8 3 -1 4 9 13 14 15 14 16 15 16
19 16 15 18 15 14 19 18 17 15 14 13 12 12 8 11 14 15 17 17 22 24 24 19 23 25 24 22 14 17 15 10 9 7 9 12 13 11 10 12 10 10 9
16 16 15 14 14 12 13 12 14 11 14 6 5 7 5 7 11 19 15 9 9 15 16 4 5 9 9 11 8 8 9 10 6 7 7 7 8 8 8 10 9 8 6
17 15 14 13 10 11 10 9 22 22 25 26 26 15 11 21 25 26 27 28 29 27 20 16 10 11 10 10 6 6 8 8 8 6 1 4 5 5 5 6 7 6 5
14 12 11 12 10 9 7 8 6 12 27 28 28 29 28 27 27 27 27 28 28 27 21 21 10 9 8 9 7 6 6 7 4 0 2 3 3 2 2 3 4 5 5
6 11 11 10 9 7 6 5 5 4 3 6 16 19 21 23 24 25 25 24 17 17 11 4 7 6 7 6 6 4 4 1 -1 -2 -2 -5 -5 -2 0 0 2 3 3
9 7 6 4 4 5 5 4 2 2 3 0 -4 7 7 16 17 18 19 -1 -3 3 6 5 4 5 5 3 2 -0 -1 -2 -7 -12 -14 -13 -8 -7 -2 -0 2 2 2
3 5 4 3 1 1 2 1 1 1 -5 -7 -7 -6 -7 -9 -11 -11 -11 -13 -9 -4 -1 -0 2 3 1 1 0 -1 -4 -5 -12 -15 -13 -13 -10 -8 -2 -1 -0 -1 0
-1 -1 1 -2 -3 -4 -3 -1 -4 -8 -8 -11 -9 -4 12 -2 -4 -8 -8 -10 -7 -3 0 -7 -1 0 0 0 -1 -3 -5 -4 -11 -15 -16 -16 -14 -11 -6 -2 -2 -1 1
-4 -5 -6 -6 -5 -3 -9 -8 -8 -9 -11 -10 -7 -5 9 -7 -11 -11 -11 -10 -6 -7 -5 -2 -3 -3 0 1 -0 -2 -4 -5 -12 -20 -15 -14 -15 -11 -9 -5 -4 -3 2
-4 -5 -6 -8 -9 -9 -11 -14 -12 -12 -12 -13 -13 -9 -13 -14 -12 -11 -9 -9 -9 -7 -10 -3 -2 -2 1 1 -0 -2 -4 -5 -10 -17 -16 -15 -15 -12 -15 -7 -5 -3 2
-4 -3 -7 -12 -11 -10 -10 -8 -6 -9 -13 -14 -17 -15 -11 -11 -12 -11 -10 -9 -8 -10 -12 -7 -2 -1 -0 -0 -3 -7 -8 -11 -19 -16 -16 -14 -10 -11 -10 -6 -5 -2 1
-11 -10 -9 -8 -6 -5 -7 -13 -14 -17 -16 -13 -12 -14 -12 -12 -11 -11 -10 -9 -8 -9 -10 -10 -6 -2 -3 -3 -4 -6 -13 -6 -9 -14 -20 -19 -14 -12 -9 -6 -5 -0 -5
-5 -3 -5 -6 -9 -11 -16 -15 -14 -13 -13 -12 -12 -13 -13 -11 -10 -10 -9 -9 -9 -10 -12 -12 -9 -8 -7 -5 -6 -8 -9 -3 -7 -8 -11 -15 -12 -9 -7 -5 0 2 -2

GFSGL_sfc_temp_048.txt.gz
Temp
39 39 37 35 36 36 35 33 32 32 31 31 30 29 29 28 28 27 27 27 27 26 26 26 26 26 24 24 23 24 23 22 18 23 24 25 24 24 26 26 27 26 28
38 37 37 36 35 33 33 32 31 31 31 31 30 29 29 28 28 27 27 27 26 27 26 26 26 29 24 23 22 22 21 21 19 18 23 23 22 24 24 23 27 30 28
36 36 34 33 33 33 32 31 31 30 30 30 29 29 28 28 28 28 28 27 27 27 27 26 25 25 23 22 22 21 21 24 21 20 19 23 23 24 24 25 26 27 30
36 35 34 33 34 33 32 31 31 31 30 29 28 29 28 28 29 29 28 27 27 27 27 26 25 24 23 22 22 21 23 20 20 19 19 21 22 25 25 23 23 25 25
36 34 34 33 33 32 31 31 30 30 31 30 29 28 29 28 30 28 28 26 25 25 25 26 26 25 28 28 24 22 21 19 19 18 19 20 21 22 21 23 21 22 24
36 34 34 33 32 31 31 30 30 29 28 28 28 27 26 30 34 34 29 26 26 25 24 24 25 23 27 31 32 32 29 17 4 12 20 20 20 21 21 21 20 18 15
34 33 32 33 32 32 31 30 29 28 28 27 26 27 25 25 35 36 35 26 25 24 24 25 25 26 23 24 27 29 29 29 30 27 22 20 20 21 21 19 19 17 16
34 33 32 32 32 30 29 29 29 28 27 27 26 25 24 25 34 36 35 26 24 24 23 23 23 23 23 23 22 21 22 23 24 26 24 23 23 25 23 21 18 15 16
33 33 33 33 31 29 29 29 29 27 25 25 25 22 22 21 33 34 33 24 24 23 24 23 22 22 25 29 24 18 20 22 27 29 29 28 27 27 25 18 10 9 9
34 34 34 33 32 30 31 30 28 27 27 25 24 21 21 19 30 34 33 23 17 21 21 23 25 25 26 28 24 21 16 19 20 12 15 18 20 19 22 19 15 8 9
35 33 31 32 32 32 31 28 24 24 22 19 20 19 18 18 18 32 33 24 22 17 18 19 21 26 29 30 30 24 22 21 13 6 7 11 13 14 15 18 18 15 10
30 30 30 30 31 30 28 20 20 20 19 16 15 14 16 16 21 27 31 32 29 17 17 20 20 26 28 29 29 30 30 26 3 -1 1 7 10 12 14 16 16 16 17
28 27 26 25 24 24 22 18 15 17 19 19 18 18 13 15 16 27 28 30 30 27 25 23 26 28 29 29 29 27 22 12 4 -2 2 8 12 14 15 13 14 14 14
24 21 19 21 17 17 19 19 19 18 18 17 15 15 8 11 14 15 16 18 24 25 26 20 23 27 28 26 18 21 17 14 12 7 7 11 12 10 9 10 8 9 7
18 16 16 16 16 14 13 14 15 10 16 8 9 10 7 7 11 19 16 11 11 16 16 3 4 11 14 14 10 11 13 11 9 7 5 6 7 7 7 8 7 5 3
17 16 15 16 12 12 12 8 22 22 25 26 25 15 7 20 25 26 27 28 29 29 22 17 15 13 13 15 14 12 10 9 10 8 4 5 5 4 4 4 4 2 2
15 13 11 12 11 10 7 11 9 13 27 27 28 29 27 22 26 27 27 28 29 27 19 16 15 12 12 13 13 10 9 9 8 6 5 4 3 0 -1 -1 1 2 0
6 11 12 9 9 7 7 6 6 8 8 4 15 19 21 22 22 23 24 22 1 2 -2 -5 -1 5 8 10 10 9 7 5 4 3 2 -1 -3 -9 -5 -4 -2 -2 -1
7 6 6 6 6 7 6 5 3 1 -2 -3 -1 10 7 15 16 17 17 -7 -11 -13 -12 -11 -8 -4 1 2 4 3 0 -0 -0 -1 -5 -6 -6 -16 -12 -6 -3 -1 -0
3 6 5 5 4 4 4 3 1 -0 -2 0 -1 -2 -4 -5 -8 -11 -12 -14 -17 -16 -15 -15 -10 -7 -2 -3 -4 -4 -4 -4 -2 -2 -5 -7 -9 -16 -9 -7 -5 -4 -3
2 1 2 0 0 -0 -2 -1 -1 -4 -5 -8 -5 -2 9 -5 -7 -11 -13 -15 -17 -14 -11 -11 -11 -9 -5 -4 -5 -5 -4 -2 -0 -2 -6 -9 -12 -21 -16 -6 -5 -5 -4
-3 -5 -5 -5 -4 -3 -6 -3 -5 -7 -10 -9 -7 -4 9 -4 -11 -14 -16 -17 -14 -13 -11 -8 -9 -11 -11 -8 -5 -2 -3 -3 -2 -3 -10 -9 -19 -22 -19 -12 -9 -6 -5
-4 -5 -7 -10 -6 -5 -5 -10 -13 -13 -11 -8 -4 -4 -8 -11 -16 -16 -16 -15 -15 -12 -10 -15 -10 -9 -11 -10 -5 -1 -2 -2 -2 -6 -9 -14 -23 -21 -23 -17 -12 -9 -7
-5 -4 -2 -4 -4 -5 -8 -13 -8 -7 -9 -12 -15 -16 -12 -14 -16 -15 -14 -13 -13 -13 -13 -13 -11 -9 -11 -12 -11 -8 -4 -4 -7 -9 -12 -18 -17 -19 -21 -19 -13 -9 -5
-6 -6 -6 -7 -10 -11 -11 -13 -13 -15 -15 -14 -13 -14 -15 -17 -15 -15 -14 -13 -12 -12 -11 -11 -11 -11 -9 -9 -10 -12 -10 -2 -4 -12 -21 -21 -18 -21 -23 -20 -12 -8 -7
-5 -6 -8 -9 -11 -10 -13 -13 -13 -15 -15 -13 -14 -17 -17 -15 -14 -14 -13 -14 -12 -10 -10 -11 -12 -11 -11 -10 -11 -9 -8 -2 -7 -11 -15 -17 -18 -18 -19 -15 -13 -7 -4